Weather History for Skagway, AK

Change the Weather History Date:

Tuesday, March 11, 2014

  Actual Average Record
Temperature  
Mean Temperature 38 °F -  
Max Temperature 42 °F 33 °F 50 °F (1984)
Min Temperature 35 °F 24 °F 6 °F (1972)
Degree Days  
Heating Degree Days 26    
Moisture  
Dew Point 33 °F    
Average Humidity 83    
Maximum Humidity 96    
Minimum Humidity 67    
Precipitation  
Precipitation 0.15 in - - ()
Sea Level Pressure  
Sea Level Pressure 29.69 in    
Wind  
Wind Speed 13 mph (SSW)    
Max Wind Speed 34 mph    
Max Gust Speed 43 mph    
Visibility 9 miles    
Events Rain , Snow    
Averages and records for this station are not official NWS values.
T = Trace of Precipitation, MM = Missing Value Source: NWS Daily Summary

Daily Weather History Graph

Daily Weather History Graph

Search for Another Location

Airport:

Trip Planner

Search our weather history database for the weather conditions in past years. The results will help you decide how hot, cold, wet, or windy it might be!

Date:

Astronomy

Mar. 11, 2014 Rise Set
Actual Time 7:28 AM AKDT 6:54 PM AKDT
Civil Twilight 6:48 AM AKDT 7:35 PM AKDT
Nautical Twilight 6:00 AM AKDT 8:23 PM AKDT
Astronomical Twilight 5:10 AM AKDT 9:13 PM AKDT
Moon 1:47 PM AKDT (3/11) 5:20 AM AKDT (3/11)
Length of Visible Light 12h 47m
Length of Day
11h 25m
Waxing Gibbous, 79% of the Moon is Illuminated
Mar 11
Waxing Gibbous
Mar 16
Full
Mar 23
Last Quarter
Mar 30
New
Apr 7
First Quarter

Hourly Weather History & Observations

Time (AKDT) Temp. Windchill Dew Point Humidity Pressure Visibility Wind Dir Wind Speed Gust Speed Precip Events Conditions
12:53 AM 41.0 °F 29.1 °F 33.1 °F 73% 29.73 in 10.0 mi SW 34.5 mph 42.6 mph N/A   Overcast
1:53 AM 41.0 °F 30.0 °F 33.1 °F 73% 29.73 in 10.0 mi SSW 28.8 mph 36.8 mph N/A   Overcast
2:53 AM 41.0 °F 32.8 °F 33.1 °F 73% 29.76 in 10.0 mi SSW 16.1 mph 34.5 mph N/A   Scattered Clouds
3:53 AM 41.0 °F 33.1 °F 33.1 °F 73% 29.77 in 10.0 mi South 15.0 mph 20.7 mph N/A   Mostly Cloudy
4:53 AM 42.1 °F 39.2 °F 33.1 °F 70% 29.77 in 10.0 mi Variable 4.6 mph 16.1 mph N/A   Overcast
5:53 AM 42.1 °F 34.9 °F 32.0 °F 67% 29.76 in 10.0 mi SSW 13.8 mph 24.2 mph N/A   Overcast
6:53 AM 39.0 °F 34.0 °F 32.0 °F 76% 29.75 in 10.0 mi Variable 6.9 mph - N/A   Overcast
7:53 AM 37.0 °F 34.5 °F 30.9 °F 79% 29.73 in 10.0 mi Variable 3.5 mph - N/A   Overcast
8:35 AM 37.0 °F 34.5 °F 32.0 °F 82% 29.70 in 10.0 mi North 3.5 mph - N/A   Overcast
8:53 AM 37.0 °F - 33.1 °F 86% 29.71 in 10.0 mi Calm Calm - N/A   Overcast
9:53 AM 36.0 °F - 32.0 °F 86% 29.71 in 7.0 mi Calm Calm - 0.01 in Rain Light Rain
10:53 AM 37.0 °F 28.9 °F 33.1 °F 86% 29.69 in 7.0 mi SSW 12.7 mph - 0.05 in Rain Light Rain
11:36 AM 35.1 °F 31.0 °F 33.1 °F 92% 29.70 in 9.0 mi South 4.6 mph - 0.03 in Rain Light Rain
11:53 AM 35.1 °F 31.0 °F 33.1 °F 92% 29.70 in 6.0 mi SSW 4.6 mph - 0.03 in Snow Light Snow
12:20 PM 35.1 °F - 34.0 °F 96% 29.69 in 8.0 mi Calm Calm - 0.01 in   Overcast
12:27 PM 35.1 °F - 34.0 °F 96% 29.68 in 8.0 mi Calm Calm - 0.01 in   Overcast
12:53 PM 36.0 °F - 34.0 °F 93% 29.68 in 5.0 mi Calm Calm - 0.01 in Rain Light Rain
1:12 PM 35.1 °F - 32.0 °F 89% 29.69 in 4.0 mi Calm Calm - 0.01 in Rain Light Rain
1:22 PM 35.1 °F 26.9 °F 30.9 °F 85% 29.69 in 3.0 mi SSW 11.5 mph - 0.02 in Snow Light Snow
1:53 PM 35.1 °F 31.0 °F 32.0 °F 89% 29.69 in 10.0 mi ENE 4.6 mph - 0.03 in Rain Light Rain
2:17 PM 36.0 °F - 33.1 °F 89% 29.67 in 10.0 mi Calm Calm - 0.01 in   Overcast
2:53 PM 36.0 °F 33.3 °F 34.0 °F 93% 29.66 in 9.0 mi North 3.5 mph - 0.01 in Rain Light Rain
3:53 PM 37.9 °F 32.7 °F 34.0 °F 86% 29.66 in 10.0 mi Variable 6.9 mph - 0.00 in   Overcast
4:25 PM 39.9 °F 34.5 °F 35.1 °F 83% 29.63 in 10.0 mi SW 8.1 mph - 0.00 in Rain Light Rain
4:53 PM 39.0 °F - 35.1 °F 86% 29.65 in 10.0 mi Calm Calm - 0.00 in   Overcast
5:53 PM 41.0 °F 38.0 °F 35.1 °F 79% 29.62 in 10.0 mi Variable 4.6 mph - 0.01 in   Overcast
6:12 PM 41.0 °F 37.1 °F 36.0 °F 82% 29.63 in 10.0 mi South 5.8 mph - N/A   Overcast
6:53 PM 41.0 °F 33.1 °F 35.1 °F 79% 29.62 in 10.0 mi SSW 15.0 mph 23.0 mph 0.00 in   Overcast
7:53 PM 41.0 °F 32.2 °F 34.0 °F 76% 29.64 in 10.0 mi SSW 18.4 mph 25.3 mph N/A   Overcast
8:53 PM 39.9 °F 31.8 °F 34.0 °F 79% 29.64 in 10.0 mi South 15.0 mph 24.2 mph 0.00 in   Overcast
9:53 PM 39.9 °F 36.7 °F 34.0 °F 79% 29.65 in 10.0 mi Variable 4.6 mph - N/A   Overcast
10:53 PM 39.9 °F 36.7 °F 34.0 °F 79% 29.66 in 10.0 mi Variable 4.6 mph - N/A   Mostly Cloudy
11:53 PM 37.0 °F 34.5 °F 32.0 °F 82% 29.66 in 10.0 mi Variable 3.5 mph - N/A   Overcast